CAPE
87 0 37 75 105 73 0 4 60 63 93 99 131 74 195 269 262 212 58 65 41 33 6 0 0 0 0 0 0 0 0 0 0 24 0 24 0 0 0 0 116 828 903 718
54 0 13 64 169 51 25 60 27 21 126 107 101 146 186 266 177 178 192 213 138 42 22 1 0 0 0 0 0 0 0 0 70 52 11 0 0 228 443 229 399 1107 1159 1590
97 26 45 89 30 13 73 39 0 8 22 229 66 139 118 24 83 337 328 198 269 125 71 0 0 0 0 0 0 14 0 253 124 277 226 231 695 432 647 779 1075 1195 1251 1316
56 153 99 237 33 67 46 58 0 45 50 84 11 61 69 0 23 172 0 117 325 238 200 63 0 7 0 0 0 11 146 321 241 364 395 614 333 513 401 353 418 516 455 351
117 191 316 360 316 119 146 44 63 43 132 108 51 10 22 0 35 50 36 107 188 243 259 181 123 216 86 52 40 71 84 363 699 370 371 679 705 352 221 228 183 248 144 0
470 482 467 350 257 167 121 70 34 193 84 52 20 0 5 1 51 11 9 22 124 172 216 333 310 367 531 377 258 306 272 443 1028 1151 783 595 522 229 153 148 217 220 45 1
564 158 113 73 93 307 119 68 109 154 84 20 99 9 2 28 20 24 0 18 9 162 389 530 496 557 728 709 696 787 868 963 1081 917 553 255 163 125 69 35 148 119 18 2
283 205 53 55 30 0 1 9 168 102 3 33 50 81 10 54 67 0 0 7 349 1219 740 549 522 788 971 1195 1071 1765 1621 940 525 165 76 10 0 0 0 0 2 2 2 1
8 47 10 0 0 0 7 25 0 0 0 0 173 239 176 74 43 2 0 0 1298 1601 1034 881 1109 1185 1258 1234 976 1174 593 347 128 0 0 0 0 0 0 0 1 1 2 0
26 0 0 0 14 38 78 0 0 0 0 0 4 183 91 40 0 0 0 37 1214 1276 963 709 765 769 621 380 114 12 3 0 0 0 0 0 0 0 0 0 1 0 0 0
0 0 0 0 0 0 28 59 0 0 0 0 0 301 219 29 0 0 0 882 693 751 716 677 564 425 148 49 6 4 0 0 0 0 0 0 0 0 0 0 0 0 0 0
0 0 0 0 0 0 0 0 0 0 0 0 0 521 455 0 0 0 480 513 382 399 355 277 407 410 207 47 0 0 1 3 0 0 0 2 0 1 0 1 2 1 1 0
0 0 0 0 0 0 0 0 0 0 0 0 0 565 303 51 346 868 580 459 296 192 160 162 125 146 114 69 4 2 1 0 0 0 0 0 1 0 2 1 2 1 0 0
0 0 0 0 0 0 0 0 0 0 0 0 0 926 1318 1140 1104 835 333 310 250 177 117 98 130 119 99 59 10 32 0 0 0 1 1 1 1 0 0 0 0 0 0 0
0 0 0 0 0 0 0 0 0 0 0 0 0 400 1293 926 754 342 414 371 379 329 187 87 137 217 284 318 215 8 2 1 0 0 0 0 0 0 0 0 0 0 0 0
0 0 0 0 0 0 0 0 0 1 0 0 0 754 710 719 840 679 673 718 759 607 519 272 329 389 518 179 35 6 2 1 8 1 0 0 0 0 0 0 0 0 0 0
0 0 0 0 0 0 0 14 33 8 73 68 30 369 587 869 778 811 947 937 975 1007 679 538 621 638 587 295 111 35 13 4 4 11 3 2 0 0 0 0 0 0 0 0
0 0 2 0 0 0 0 0 0 7 534 532 556 423 117 6 0 15 526 897 942 1022 860 689 608 559 454 334 298 133 110 36 12 7 28 13 0 0 0 0 0 0 0 1
10 48 9 1 2 0 0 21 23 1 172 416 140 20 3 2 7 6 6 638 783 884 944 953 868 561 382 370 268 224 106 166 170 102 36 0 0 0 0 0 0 6 14 10
0 0 0 0 0 0 32 1 8 0 3 90 2 18 4 73 11 3 6 0 723 1103 1100 1072 579 515 415 212 66 34 10 0 0 1 23 13 5 16 8 7 14 9 5 3
13 6 28 6 2 44 61 54 2 0 306 286 24 199 0 21 262 188 1 0 637 1022 817 648 485 223 66 24 2 0 0 11 0 35 23 12 0 0 0 0 16 21 5 0
20 23 44 19 3 5 57 95 530 440 384 452 546 915 786 607 423 103 281 879 951 874 814 573 248 104 10 0 0 2 0 0 0 0 0 0 0 0 0 6 15 11 1 0
46 45 205 126 256 117 11 0 0 198 530 1193 1064 957 600 570 352 317 182 376 887 1037 736 244 49 8 0 5 0 0 0 6 0 0 0 0 35 36 14 2 0 0 1 0
40 77 76 29 0 55 73 2 12 110 476 449 262 127 391 679 850 646 798 686 909 751 307 4 0 0 0 0 2 105 169 21 11 11 32 43 34 11 16 0 0 0 2 3
102 67 13 28 85 40 6 2 128 206 106 3 0 0 5 217 340 461 579 966 976 701 228 0 0 0 3 0 0 60 309 68 42 55 108 140 138 52 4 22 23 2 0 0
89 11 23 33 23 3 12 0 94 228 75 5 0 0 0 0 72 133 97 124 651 517 181 0 0 43 161 126 57 67 76 235 96 119 66 50 0 0 0 0 0 4 0 0
CIN
-62 -0 -23 -39 -53 -55 -0 -67 -43 -38 -45 -31 -42 -30 -68 -59 -61 -46 -25 -63 -62 -45 -19 -0 -0 -0 -0 -0 -0 -0 -0 -0 -0 -105 -0 -46 -0 -0 -0 -0 -27 -16 -28 -22
-105 -0 -86 -120 -59 -74 -95 -93 -76 -111 -49 -14 -33 -59 -70 -36 -109 -99 -88 -42 -49 -34 -38 -18 -0 -0 -0 -0 -0 -0 -0 -0 -160 -148 -31 -0 -0 -25 -17 -36 -26 -25 -20 -29
-184 -181 -149 -108 -86 -59 -79 -106 -0 -169 -108 -50 -82 -52 -119 -117 -158 -99 -63 -174 -48 -56 -101 -0 -0 -0 -0 -0 -0 -93 -0 -107 -128 -81 -49 -33 -14 -15 -50 -67 -51 -60 -43 -64
-212 -128 -127 -70 -71 -156 -45 -161 -0 -99 -120 -33 -65 -42 -127 -33 -266 -165 -2 -65 -82 -58 -116 -120 -0 -187 -0 -0 -0 -213 -123 -92 -79 -65 -42 -23 -19 -28 -114 -122 -133 -130 -109 -114
-43 -76 -83 -71 -61 -86 -14 -82 -107 -74 -44 -24 -71 -99 -208 -18 -141 -180 -213 -176 -104 -65 -72 -112 -102 -109 -162 -189 -196 -166 -166 -103 -83 -82 -68 -31 -34 -116 -147 -140 -130 -132 -172 -12
-87 -37 -31 -18 -11 -8 -13 -61 -111 -78 -95 -31 -127 -0 -58 -43 -174 -97 -115 -167 -111 -74 -52 -59 -86 -104 -105 -169 -189 -155 -153 -120 -81 -45 -48 -66 -100 -160 -173 -173 -135 -128 -180 -53
-24 -10 -73 -76 -45 -11 -55 -38 -57 -21 -52 -35 -96 -110 -27 -105 -274 -296 -132 -197 -290 -73 -53 -66 -70 -72 -92 -112 -137 -141 -141 -124 -100 -121 -161 -205 -195 -194 -212 -286 -160 -190 -257 -0
-7 -7 -70 -151 -233 -0 -10 -94 -21 -9 -3 -27 -205 -111 -73 -276 -327 -0 -0 -67 -85 -74 -90 -86 -49 -59 -74 -52 -75 -79 -131 -154 -218 -310 -362 -360 -6 -0 -0 -0 -65 -35 -23 -0
-9 -10 -139 -0 -3 -0 -74 -104 -0 -0 -0 -0 -87 -114 -271 -371 -342 -26 -0 -0 -61 -205 -257 -307 -310 -306 -252 -256 -290 -198 -309 -352 -425 -0 -0 -0 -0 -0 -0 -0 -0 -0 -0 -0
-45 -0 -0 -0 -92 -105 -62 -0 -0 -0 -0 -0 -10 -56 -80 -255 -0 -0 -0 -90 -109 -265 -371 -442 -437 -420 -458 -517 -571 -373 -389 -0 -0 -0 -0 -0 -0 -0 -0 -0 -0 -0 -0 -0
-0 -0 -0 -0 -0 -0 -29 -50 -0 -0 -0 -0 -0 -27 -140 -204 -0 -0 -0 -190 -223 -286 -307 -394 -410 -445 -560 -633 -60 -0 -0 -0 -0 -0 -0 -0 -0 -0 -0 -0 -0 -0 -0 -0
-0 -0 -0 -0 -0 -0 -0 -0 -0 -0 -0 -0 -0 -55 -222 -12 -0 -0 -260 -270 -330 -318 -321 -368 -380 -422 -487 -550 -0 -0 -0 -0 -0 -0 -0 -0 -1 -0 -0 -0 -0 -0 -0 -0
-0 -0 -0 -0 -0 -0 -0 -0 -0 -0 -0 -0 -0 -55 -291 -361 -219 -221 -289 -366 -402 -420 -448 -413 -422 -437 -454 -438 -97 -0 -0 -0 -0 -0 -0 -0 -0 -0 -0 -0 -0 -0 -0 -0
-0 -0 -0 -0 -0 -0 -0 -0 -0 -0 -0 -0 -0 -28 -75 -163 -196 -282 -403 -409 -413 -430 -444 -456 -438 -437 -442 -441 -463 -385 -0 -0 -0 -2 -3 -3 -2 -0 -0 -0 -0 -0 -0 -0
-0 -0 -0 -0 -0 -0 -0 -0 -0 -0 -0 -0 -0 -70 -61 -160 -208 -297 -376 -364 -347 -331 -394 -369 -352 -323 -315 -282 -278 -361 -2 -4 -0 -0 -2 -4 -2 -0 -0 -0 -0 -0 -0 -0
-0 -0 -0 -0 -0 -0 -0 -2 -1 -52 -1 -0 -0 -143 -246 -213 -138 -199 -205 -220 -177 -191 -180 -263 -212 -199 -162 -256 -289 -322 -281 -7 -272 -9 -0 -3 -3 -0 -0 -0 -0 -0 -0 -0
-0 -0 -0 -0 -0 -0 -0 -98 -70 -64 -51 -53 -65 -269 -274 -172 -169 -145 -78 -55 -16 -39 -109 -143 -97 -67 -97 -181 -231 -268 -331 -210 -77 -237 -87 -56 -0 -0 -0 -0 -0 -0 -0 -0
-0 -0 -6 -0 -0 -0 -0 -0 -4 -39 -58 -125 -173 -212 -236 -112 -0 -188 -123 -27 -60 -33 -51 -79 -90 -74 -91 -135 -120 -161 -172 -222 -224 -158 -229 -260 -0 -0 -0 -0 -0 -0 -0 -7
-3 -5 -8 -0 -1 -0 -0 -17 -38 -56 -33 -145 -177 -245 -59 -101 -465 -390 -268 -58 -52 -44 -50 -84 -60 -79 -119 -84 -94 -95 -123 -90 -86 -139 -202 -0 -0 -0 -0 -0 -0 -9 -6 -4
-0 -0 -0 -0 -0 -0 -19 -7 -52 -0 -46 -92 -94 -357 -455 -369 -192 -87 -398 -0 -46 -22 -85 -51 -63 -56 -96 -107 -165 -222 -247 -0 -0 -40 -211 -223 -218 -154 -8 -11 -6 -9 -3 -2
-39 -35 -18 -11 -13 -18 -77 -92 -11 -11 -17 -77 -127 -181 -0 -100 -131 -181 -128 -124 -82 -52 -51 -69 -90 -120 -216 -269 -192 -0 -0 -251 -0 -212 -130 -172 -0 -0 -0 -0 -10 -7 -6 -0
-17 -16 -12 -56 -24 -48 -103 -29 -24 -18 -20 -53 -101 -68 -81 -116 -111 -158 -108 -19 -27 -43 -37 -75 -134 -174 -241 -0 -0 -74 -0 -0 -0 -0 -0 -0 -0 -0 -0 -8 -12 -11 -1 -0
-20 -14 -23 -33 -18 -77 -123 -0 -8 -20 -7 -31 -23 -35 -30 -46 -76 -98 -64 -50 -28 -39 -48 -89 -142 -187 -0 -66 -0 -0 -0 -178 -0 -0 -0 -0 -192 -188 -208 -3 -0 -0 -6 -3
-30 -44 -36 -50 -0 -76 -94 -33 -54 -24 -10 -22 -43 -50 -20 -18 -25 -40 -38 -33 -24 -31 -43 -61 -0 -0 -0 -0 -139 -71 -44 -147 -181 -171 -131 -143 -168 -212 -171 -0 -0 -0 -28 -29
-12 -32 -28 -72 -78 -78 -45 -83 -60 -22 -29 -24 -0 -0 -55 -38 -22 -21 -22 -19 -19 -26 -42 -0 -0 -0 -72 -0 -0 -86 -19 -67 -88 -74 -52 -60 -72 -116 -68 -147 -148 -16 -0 -0
-44 -43 -41 -26 -141 -50 -177 -30 -21 -20 -34 -24 -0 -0 -0 -0 -40 -70 -67 -47 -19 -24 -46 -0 -0 -138 -92 -82 -90 -68 -66 -29 -42 -29 -59 -76 -0 -0 -0 -0 -0 -72 -0 -0
Wind_Speed
18 19 21 17 12 11 12 12 12 22 25 25 18 5 10 15 12 17 15 16 15 13 15 17 17 16 15 14 13 11 14 13 12 11 10 4 7 6 5 7 12 5 7 9
17 20 19 20 22 12 11 17 27 27 24 22 13 9 20 27 22 11 21 18 17 17 17 19 18 17 17 16 14 12 10 12 10 9 7 4 5 11 12 7 9 6 8 12
15 15 17 17 21 9 16 18 5 24 21 13 15 21 20 18 25 19 25 27 21 21 19 22 21 19 18 16 15 14 14 12 10 7 4 6 12 14 18 18 16 15 18 19
15 13 20 23 13 22 17 11 11 14 7 20 19 19 19 22 23 12 13 30 33 24 18 22 20 19 19 18 17 17 16 13 11 6 2 8 11 14 15 17 17 18 20 23
10 10 9 11 10 14 8 10 10 8 17 20 22 25 27 19 14 9 20 27 30 23 18 19 20 19 20 19 15 15 16 11 10 10 7 5 12 14 15 17 19 18 22 25
9 9 4 17 26 27 18 14 10 20 18 25 16 22 31 21 10 9 17 23 14 19 9 17 17 18 17 19 17 15 13 12 6 4 5 6 9 14 18 18 18 13 14 17
9 14 21 24 31 28 24 22 25 25 21 27 11 23 16 4 17 17 23 28 37 38 13 13 15 15 12 16 15 12 7 4 4 6 6 8 10 12 15 17 15 12 15 14
24 25 22 24 20 27 35 20 23 30 36 31 16 25 19 11 12 14 20 27 12 15 7 7 10 11 3 3 7 4 5 4 4 7 9 11 13 13 14 20 16 15 13 11
26 27 20 20 15 16 23 27 23 32 33 30 19 17 18 14 11 10 13 19 8 16 16 11 10 5 4 5 5 3 3 5 4 7 11 13 14 16 16 18 17 16 15 14
21 25 22 25 14 17 11 17 27 28 30 30 26 22 22 11 8 6 8 11 14 13 13 11 8 8 8 8 7 5 5 5 7 9 12 12 13 14 14 15 16 15 15 15
13 19 29 29 27 28 21 16 22 26 24 26 32 27 13 5 3 4 6 12 13 13 14 10 9 10 10 9 7 7 7 8 9 11 12 12 13 12 12 12 13 14 15 15
24 23 30 33 32 25 25 26 24 29 31 30 28 24 11 6 6 7 11 12 11 12 11 11 11 10 10 8 7 7 10 11 11 10 12 11 11 11 11 12 12 13 14 14
23 25 33 36 30 24 31 30 29 30 25 24 28 21 10 5 8 10 9 10 10 10 10 9 10 11 9 8 7 9 11 12 11 10 9 10 10 10 10 11 12 13 13 13
20 23 28 34 36 35 35 36 34 30 29 32 23 15 7 5 4 8 9 10 10 10 10 9 8 9 9 9 9 9 10 11 10 10 11 11 10 11 11 12 12 12 12 12
17 21 24 27 31 36 38 37 39 37 34 34 35 21 5 4 5 7 7 8 9 9 6 7 6 6 8 9 10 11 11 10 10 11 11 11 11 11 11 11 11 11 11 13
21 25 31 34 30 35 39 38 34 39 35 34 35 20 13 8 8 9 9 10 10 9 5 5 7 7 8 9 10 10 10 10 10 11 12 11 11 11 11 11 11 11 11 12
27 28 28 34 35 39 41 35 35 32 34 32 30 14 7 7 8 9 9 9 10 10 6 5 6 6 7 9 9 9 10 10 10 11 11 11 11 11 12 11 11 10 9 10
18 20 22 26 29 32 30 30 28 26 18 14 10 6 8 11 14 17 22 21 14 7 5 8 10 7 8 9 9 11 11 11 11 11 11 10 10 10 10 10 9 9 9 8
15 21 20 21 27 34 32 25 19 22 19 11 10 10 15 14 16 20 26 18 3 14 11 8 8 7 8 9 9 10 11 10 10 10 10 10 9 9 9 9 9 9 11 14
24 22 17 20 22 28 19 22 25 16 21 13 13 13 14 18 18 13 1 16 16 13 9 8 8 7 8 9 9 10 12 12 11 10 9 9 9 10 10 9 11 10 14 14
17 22 15 16 21 21 23 26 22 20 18 15 16 12 11 12 10 13 14 16 16 13 11 11 10 9 9 9 10 11 12 12 13 11 12 11 11 12 12 11 12 15 16 13
19 17 16 19 24 34 20 19 17 17 18 12 13 13 12 12 14 13 13 12 13 12 9 9 9 10 11 11 11 11 12 13 14 14 13 13 11 10 8 7 6 10 7 3
18 17 21 21 23 15 18 17 35 27 16 10 12 13 14 13 12 12 12 8 17 12 11 12 12 12 12 12 10 10 11 12 14 14 12 11 9 7 6 6 5 4 3 2
21 22 20 24 36 16 16 17 28 8 10 11 13 14 16 11 11 9 10 10 12 12 13 12 13 12 10 9 8 8 9 10 12 11 10 9 7 5 4 4 4 5 6 6
23 21 23 19 19 17 17 6 6 10 10 11 13 14 16 14 11 11 11 10 9 9 9 8 10 9 8 7 7 6 6 6 7 8 7 8 5 3 3 6 7 6 7 5
21 22 23 26 17 16 20 24 5 10 10 9 10 12 15 18 12 8 8 10 10 8 8 7 5 5 4 4 4 5 6 5 5 7 11 14 18 24 8 5 1 5 9 10
Wind_Direction
267 269 273 181 100 172 358 337 341 260 248 224 188 51 118 144 133 148 142 138 139 142 139 135 130 124 120 125 123 120 134 128 116 118 129 89 357 13 18 356 346 42 10 359
299 271 265 270 254 358 348 319 284 255 240 236 3 354 311 258 279 313 266 154 146 147 148 145 138 130 132 133 131 126 126 135 125 121 98 90 25 351 344 348 356 32 4 354
275 251 242 257 319 334 318 333 95 204 238 319 332 331 334 319 306 295 273 272 163 160 147 147 143 138 136 139 138 136 143 139 136 119 75 346 327 327 332 341 340 339 333 335
202 169 213 260 340 173 341 100 105 169 317 310 321 320 355 349 340 321 265 240 207 168 143 147 145 139 142 144 144 147 144 147 149 129 51 335 330 331 337 340 344 343 342 339
86 119 162 199 176 165 45 73 130 118 334 333 332 316 316 352 356 53 187 198 196 170 150 145 147 144 148 149 145 148 150 142 141 147 142 3 339 342 340 335 336 337 329 330
188 192 36 219 286 290 334 351 352 330 338 318 337 328 325 333 20 140 168 196 263 175 156 154 151 149 152 155 152 149 150 144 122 71 18 2 352 340 338 340 340 336 327 327
345 355 335 324 301 304 326 313 312 310 318 312 339 327 338 42 7 351 323 295 277 225 151 148 151 158 159 159 158 157 141 107 30 36 21 355 350 345 348 352 351 353 347 345
318 318 328 330 337 328 288 318 311 305 303 314 333 318 337 10 15 22 15 341 260 42 27 352 150 155 140 185 172 127 120 69 34 5 4 4 0 10 4 356 5 6 12 15
315 309 321 334 340 334 324 300 326 307 305 310 329 334 343 354 8 18 17 343 26 18 12 359 17 47 46 23 341 156 106 92 44 1 3 357 360 357 359 5 12 19 26 26
321 317 328 335 329 319 320 322 319 320 305 304 316 320 312 333 339 1 20 57 22 331 359 8 5 29 35 44 46 61 47 30 3 359 351 358 359 358 3 10 13 19 26 30
338 327 317 317 314 316 322 304 304 307 311 311 308 319 334 5 69 66 44 7 356 347 5 20 29 39 41 43 44 41 26 356 348 343 347 352 353 358 7 15 20 22 26 27
334 328 313 310 304 322 331 326 325 306 299 304 311 316 345 3 355 356 344 358 17 18 19 15 26 44 40 45 39 12 350 344 345 346 348 356 10 15 13 13 20 19 16 14
332 321 310 304 307 307 317 310 319 320 324 313 312 314 336 357 336 340 340 348 356 10 21 21 18 22 31 32 18 357 348 352 1 10 15 18 19 16 13 11 6 5 9 11
333 323 309 299 294 300 305 302 304 313 307 306 321 332 328 305 334 334 334 337 342 350 352 359 5 13 15 15 25 15 14 12 15 21 20 17 17 13 11 3 4 7 10 9
344 331 322 315 305 295 297 299 293 294 298 298 298 321 305 297 318 336 338 334 334 337 356 358 7 11 26 14 19 12 17 27 27 28 25 23 18 20 22 14 5 12 11 4
342 330 316 307 314 303 298 300 304 297 295 294 294 307 312 325 329 333 331 323 320 322 340 346 334 6 22 36 28 30 27 21 21 18 20 29 36 37 41 44 27 15 9 4
322 322 321 309 312 305 296 300 302 307 303 299 298 297 293 312 328 344 349 345 357 352 11 43 356 10 36 41 39 33 36 39 36 35 40 40 34 31 33 34 30 26 24 15
316 314 317 314 314 303 311 304 311 306 332 347 356 347 332 334 332 330 320 313 322 337 54 67 85 65 44 42 47 50 49 49 45 38 32 30 28 31 34 33 36 34 34 34
331 324 325 321 315 307 309 315 320 307 325 352 345 345 342 348 341 331 324 299 3 128 124 79 77 59 56 64 69 65 59 53 43 31 33 28 26 24 23 20 26 32 18 6
333 329 329 325 325 319 324 319 306 319 306 344 356 350 348 342 329 342 285 125 148 125 95 84 80 63 50 62 47 44 33 30 27 32 32 30 24 14 13 17 8 17 357 359
343 315 322 324 323 320 330 316 317 312 319 336 350 9 13 6 114 102 129 148 147 113 106 95 83 77 64 65 70 62 58 48 36 41 31 25 19 14 10 7 4 349 352 7
341 335 329 324 319 287 326 331 328 329 327 9 24 39 64 77 100 99 131 116 120 112 91 87 81 89 96 99 93 69 51 47 38 32 25 25 30 37 49 40 38 12 31 63
340 344 329 322 325 337 337 310 269 282 328 38 51 64 56 62 78 87 101 56 125 99 100 106 109 108 114 114 93 56 48 49 39 35 31 38 68 97 125 53 52 67 142 161
329 328 327 317 294 320 333 329 204 349 357 12 20 16 17 50 64 72 70 67 92 97 106 101 110 112 106 105 82 55 54 51 42 42 34 46 56 74 110 137 149 168 187 195
323 326 322 337 323 330 328 113 127 355 2 5 1 5 14 25 33 39 32 30 42 58 64 83 108 112 105 93 81 69 59 57 45 43 47 23 31 140 176 197 203 199 202 190
314 315 313 304 326 331 314 268 16 342 351 1 2 2 359 353 4 37 26 22 40 50 48 42 64 105 101 100 86 65 47 62 55 31 11 2 346 294 213 19 113 197 209 214